Nebraska City, NE

8:58 PM CDT on March 30, 2017 (GMT -0500)
Nebraska City Municipal

Weather History for KAFK - January, 2014

Change the Weather History Date:

Saturday, January 25, 2014

  Actual Average (KSDA) Record (KSDA)
Temperature  
Mean Temperature 38 °F -  
Max Temperature 48 °F 35 °F 66 °F (1981)
Min Temperature 29 °F 16 °F -4 °F (1961)
Degree Days  
Heating Degree Days 26    
Moisture  
Dew Point 23 °F    
Average Humidity 60    
Maximum Humidity 89    
Minimum Humidity 32    
Precipitation  
Precipitation 0.00 in - - ()
Sea Level Pressure  
Sea Level Pressure 29.89 in    
Wind  
Wind Speed 15 mph (NW)    
Max Wind Speed 25 mph    
Max Gust Speed 32 mph    
Visibility 10 miles    
Events      
Averages and records for this station are not official NWS values.
T = Trace of Precipitation, MM = Missing Value Source: NWS Daily Summary

Daily Weather History Graph

Daily Weather History Graph

Search for Another Location

Airport or City:

Trip Planner

Search our weather history database for the weather conditions in past years. The results will help you decide how hot, cold, wet, or windy it might be!

Date:

Astronomy

Jan. 25, 2014 Rise Set
Actual Time 7:39 AM CST 5:32 PM CST
Civil Twilight 7:09 AM CST 6:02 PM CST
Nautical Twilight 6:36 AM CST 6:35 PM CST
Astronomical Twilight 6:04 AM CST 7:07 PM CST
Moon 2:12 AM CST (1/25) 12:34 PM CST (1/25)
Length of Visible Light 10h 52m
Length of Day
9h 53m
Waning Crescent, 34% of the Moon is Illuminated
Jan 25
Waning Crescent
Jan 30
New
Feb 6
First Quarter
Feb 14
Full
Feb 22
Last Quarter

Hourly Weather History & Observations

Time (CST) Temp. Windchill Dew Point Humidity Pressure Visibility Wind Dir Wind Speed Gust Speed Precip Events Conditions
12:15 AM 48.2 °F - 32.4 °F 54% 29.78 in 10.0 mi NNW 21.9 mph 31.1 mph N/A   Overcast
12:35 AM 47.1 °F - 32.5 °F 57% 29.78 in 10.0 mi NNW 21.9 mph 28.8 mph N/A   Mostly Cloudy
12:55 AM 45.5 °F 36.7 °F 32.5 °F 61% 29.78 in 10.0 mi NNW 25.3 mph 32.2 mph N/A   Scattered Clouds
1:15 AM 44.6 °F 36.4 °F 32.2 °F 62% 29.79 in 10.0 mi NNW 20.7 mph 26.5 mph N/A   Scattered Clouds
1:35 AM 43.9 °F 36.5 °F 32.2 °F 63% 29.80 in 10.0 mi NNW 16.1 mph 21.9 mph N/A   Mostly Cloudy
1:55 AM 44.6 °F 36.6 °F 32.5 °F 63% 29.81 in 10.0 mi NNW 19.6 mph 27.6 mph N/A   Overcast
2:15 AM 44.2 °F 37.0 °F 32.2 °F 63% 29.82 in 10.0 mi NNW 16.1 mph 26.5 mph N/A   Overcast
2:35 AM 44.1 °F 35.9 °F 32.0 °F 63% 29.83 in 10.0 mi NNW 19.6 mph 28.8 mph N/A   Overcast
2:55 AM 43.3 °F 36.1 °F 32.0 °F 64% 29.84 in 10.0 mi NW 15.0 mph 23.0 mph N/A   Overcast
3:15 AM 42.8 °F 37.0 °F 32.0 °F 66% 29.84 in 10.0 mi NW 10.4 mph - N/A   Overcast
3:35 AM 41.7 °F 35.2 °F 31.6 °F 67% 29.84 in 10.0 mi NW 11.5 mph - N/A   Scattered Clouds
3:55 AM 41.7 °F 33.4 °F 30.9 °F 66% 29.84 in 10.0 mi NNW 17.3 mph 24.2 mph N/A   Clear
4:15 AM 39.4 °F 32.7 °F 30.2 °F 70% 29.85 in 10.0 mi NW 10.4 mph - N/A   Clear
4:35 AM 40.1 °F 32.7 °F 30.9 °F 70% 29.85 in 10.0 mi NW 12.7 mph - N/A   Scattered Clouds
4:55 AM 39.6 °F 32.1 °F 31.1 °F 72% 29.85 in 10.0 mi NW 12.7 mph - N/A   Overcast
5:15 AM 40.6 °F 33.8 °F 31.1 °F 69% 29.85 in 10.0 mi NW 11.5 mph - N/A   Overcast
5:35 AM 40.1 °F 33.6 °F 31.1 °F 70% 29.85 in 10.0 mi WNW 10.4 mph - N/A   Overcast
5:55 AM 40.1 °F 33.6 °F 31.1 °F 70% 29.86 in 10.0 mi WNW 10.4 mph - N/A   Overcast
6:15 AM 40.3 °F 33.0 °F 31.1 °F 70% 29.87 in 10.0 mi NW 12.7 mph - N/A   Overcast
6:35 AM 39.6 °F 33.0 °F 31.6 °F 73% 29.89 in 10.0 mi NW 10.4 mph - N/A   Drizzle
6:55 AM 38.5 °F 30.7 °F 33.4 °F 82% 29.89 in 10.0 mi NNW 12.7 mph - N/A   Light Drizzle
7:15 AM 38.8 °F 30.8 °F 33.8 °F 82% 29.90 in 10.0 mi NNW 13.8 mph 18.4 mph N/A   Overcast
7:35 AM 38.3 °F 30.5 °F 34.3 °F 86% 29.91 in 5.0 mi NW 12.7 mph 20.7 mph N/A   Drizzle
7:55 AM 37.9 °F 28.9 °F 34.7 °F 88% 29.93 in 10.0 mi NNW 16.1 mph - N/A   Overcast
8:15 AM 38.3 °F 29.7 °F 34.7 °F 87% 29.95 in 10.0 mi NNW 15.0 mph 18.4 mph N/A   Overcast
8:35 AM 33.1 °F 22.2 °F 29.8 °F 88% 29.98 in 10.0 mi NNE 17.3 mph 28.8 mph N/A   Overcast
8:55 AM 32.9 °F 24.7 °F 30.0 °F 89% 29.98 in 10.0 mi North 10.4 mph - N/A   Overcast
9:15 AM 33.3 °F 24.6 °F 29.3 °F 85% 30.00 in 10.0 mi North 11.5 mph 16.1 mph N/A   Overcast
9:35 AM 33.3 °F 22.8 °F 28.2 °F 82% 30.01 in 10.0 mi North 16.1 mph 19.6 mph N/A   Overcast
9:55 AM 33.1 °F 23.9 °F 24.6 °F 71% 30.02 in 10.0 mi North 12.7 mph - N/A   Overcast
10:15 AM 33.1 °F 22.6 °F 23.7 °F 68% 30.03 in 10.0 mi North 16.1 mph 20.7 mph N/A   Overcast
10:35 AM 33.1 °F 22.2 °F 23.4 °F 67% 30.04 in 10.0 mi North 17.3 mph 20.7 mph N/A   Overcast
10:55 AM 33.4 °F 23.5 °F 21.6 °F 62% 30.05 in 10.0 mi North 15.0 mph - N/A   Mostly Cloudy
11:15 AM 34.5 °F 25.3 °F 20.8 °F 57% 30.06 in 10.0 mi North 13.8 mph - N/A   Scattered Clouds
11:35 AM 33.8 °F 23.5 °F 17.6 °F 52% 30.05 in 10.0 mi North 16.1 mph 26.5 mph N/A   Scattered Clouds
11:55 AM 34.5 °F 23.8 °F 18.0 °F 51% 30.06 in 10.0 mi NNW 18.4 mph 23.0 mph N/A   Scattered Clouds
12:15 PM 35.1 °F 25.2 °F 17.2 °F 48% 30.05 in 10.0 mi NNW 16.1 mph 19.6 mph N/A   Clear
12:35 PM 34.9 °F 23.9 °F 11.5 °F 38% 30.05 in 10.0 mi NNW 19.6 mph 24.2 mph N/A   Clear
12:55 PM 35.1 °F 26.4 °F 10.8 °F 37% 30.04 in 10.0 mi NNW 12.7 mph - N/A   Clear
1:15 PM 35.4 °F 26.4 °F 10.2 °F 35% 30.04 in 10.0 mi NNW 13.8 mph 23.0 mph N/A   Clear
1:35 PM 36.0 °F 25.6 °F 10.0 °F 34% 30.02 in 10.0 mi NNW 18.4 mph 21.9 mph N/A   Clear
1:55 PM 36.0 °F 27.1 °F 9.3 °F 33% 30.01 in 10.0 mi NW 13.8 mph - N/A   Clear
2:15 PM 36.3 °F 28.4 °F 9.1 °F 32% 30.01 in 10.0 mi NNW 11.5 mph 18.4 mph N/A   Clear
2:35 PM 36.9 °F 27.8 °F 9.9 °F 33% 30.00 in 10.0 mi NNW 15.0 mph 18.4 mph N/A   Clear
2:55 PM 36.5 °F 29.2 °F 10.4 °F 34% 29.99 in 10.0 mi North 10.4 mph - N/A   Clear
3:15 PM 36.5 °F 30.3 °F 11.5 °F 36% 29.99 in 10.0 mi NNW 8.1 mph - N/A   Clear
3:35 PM 36.9 °F 30.7 °F 12.2 °F 36% 29.97 in 10.0 mi NNW 8.1 mph - N/A   Clear
3:55 PM 36.7 °F 31.2 °F 13.1 °F 38% 29.97 in 10.0 mi NNW 6.9 mph - N/A   Clear
4:15 PM 36.5 °F 31.0 °F 13.3 °F 39% 29.96 in 10.0 mi NNW 6.9 mph - N/A   Clear
4:35 PM 36.1 °F 33.5 °F 14.0 °F 40% 29.95 in 10.0 mi West 3.5 mph - N/A   Clear
4:55 PM 36.0 °F 33.3 °F 14.0 °F 41% 29.94 in 10.0 mi WNW 3.5 mph - N/A   Clear
5:15 PM 34.5 °F 30.4 °F 14.2 °F 43% 29.94 in 10.0 mi SW 4.6 mph - N/A   Clear
5:35 PM 32.0 °F 26.4 °F 13.5 °F 46% 29.91 in 10.0 mi South 5.8 mph - N/A   Clear
5:55 PM 32.0 °F 26.4 °F 13.6 °F 47% 29.90 in 10.0 mi South 5.8 mph - N/A   Clear
6:15 PM 29.5 °F 21.8 °F 13.1 °F 51% 29.89 in 10.0 mi South 8.1 mph - N/A   Clear
6:35 PM 29.1 °F 23.0 °F 14.0 °F 53% 29.88 in 10.0 mi SSW 5.8 mph - N/A   Clear
6:55 PM 30.0 °F 23.2 °F 15.1 °F 54% 29.87 in 10.0 mi South 6.9 mph - N/A   Mostly Cloudy
7:15 PM 30.9 °F 24.3 °F 16.5 °F 55% 29.86 in 10.0 mi South 6.9 mph - N/A   Overcast
7:35 PM 33.1 °F 23.0 °F 19.2 °F 57% 29.82 in 10.0 mi SSW 15.0 mph - N/A   Overcast
7:55 PM 32.0 °F 23.6 °F 18.9 °F 58% 29.81 in 10.0 mi South 10.4 mph - N/A   Mostly Cloudy
8:15 PM 31.6 °F 23.7 °F 19.4 °F 61% 29.81 in 10.0 mi South 9.2 mph - N/A   Scattered Clouds
9:15 PM 32.0 °F 21.6 °F 20.3 °F 62% 29.72 in 10.0 mi South 15.0 mph - N/A   Scattered Clouds
9:35 PM 32.0 °F 21.6 °F 21.2 °F 64% 29.70 in 10.0 mi South 15.0 mph - N/A   Clear
9:55 PM 31.6 °F 20.7 °F 21.7 °F 67% 29.68 in 10.0 mi SSW 16.1 mph - N/A   Clear
10:15 PM 31.6 °F 21.2 °F 22.6 °F 69% 29.66 in 10.0 mi SSW 15.0 mph - N/A   Clear
10:35 PM 32.9 °F 22.0 °F 24.6 °F 72% 29.64 in 10.0 mi SSW 17.3 mph 23.0 mph N/A   Clear
10:55 PM 35.8 °F 25.1 °F 26.1 °F 68% 29.62 in 10.0 mi SW 19.6 mph - N/A   Clear
11:15 PM 36.1 °F 26.5 °F 26.6 °F 68% 29.61 in 10.0 mi SW 16.1 mph - N/A   Clear
11:35 PM 38.1 °F 28.4 °F 28.2 °F 68% 29.59 in 10.0 mi SW 18.4 mph - N/A   Clear
11:55 PM 40.8 °F 31.4 °F 29.3 °F 64% 29.58 in 10.0 mi SW 20.7 mph 25.3 mph N/A   Clear